Погода в Подольске

Россия / Оренбургская область     52°49′57″N   53°35′30″E
темп.,
°C
ветер,
м/с
пор.,
м/с
влажн.,
%
обл.,
%
осадки,
мм/ч
давл.,
гПа
погр.,
м
18 мая, вт
вт1823:00+22ююв12301 0.0 101711
02:00+20ю113511 0.0 101711
05:00+18вюв11390 0.0 101711
08:00+22всв11385 0.0 101761
11:00+28св11281 0.0 1017477
14:00+31ссв22200 0.0 10163196
17:00+31с12195 0.0 10153503
20:00+27с223511 0.0 101416
19 мая, ср
ср1923:00+21всв51157100 0.0 1015259
02:00+18всв356420 0.1 101587
05:00+17св38725 0.1 1015151
08:00+19в69680 0.0 1016366
11:00+23в79530 0.0 1016993
14:00+26вюв78430 0.0 10161891
17:00+26вюв78410 0.0 10172016
20:00+23в59520 0.0 1017326
20 мая, чт
чт2023:00+18вюв513561 0.0 1018337
02:00+16вюв5145894 0.0 1019350
05:00+15вюв514565 0.0 1020352
08:00+16вюв613560 0.0 1020472
11:00+21юв89410 0.0 10201325
14:00+23юв893466 0.0 10191861
17:00+24юв793242 0.0 10182237
20:00+20юв49480 0.0 1018267
21 мая, пт
пт2123:00+17вюв514520 0.0 1018308
02:00+16юв51450100 0.0 1018380
05:00+15вюв4852100 0.0 1018166
08:00+15юв4860100 0.0 1019316
11:00+20ююв455157 0.4 1019994
14:00+22ююз355315 0.0 10191354
17:00+25юз4541100 0.0 10192302
20:00+22ююв115899 0.0 101914
22 мая, сб
сб2223:00+19ю226598 0.0 102026
02:00+17зсз2267100 0.0 102120
05:00+16сз116996 0.0 102311
08:00+19ссз115881 0.0 1024128
11:00+24сз004180 0.0 10231043
14:00+27ююв11345 0.0 10231566
17:00+28ююв0131100 0.0 10222024
20:00+26в11435 0.0 102211